Vinton, IA

1:36 AM CST on February 22, 2017 (GMT -0600)
Vinton-Veterans Memorial

Weather History for KVTI - May, 2013

Change the Weather History Date:

Tuesday, May 14, 2013

  Actual Average Record
Temperature  
Mean Temperature 70 °F -  
Max Temperature 90 °F 72 °F 90 °F (2013)
Min Temperature 52 °F 48 °F 33 °F (1966)
Cooling Degree Days 4    
Growing Degree Days 20 (Base 50)    
Moisture  
Dew Point 48 °F    
Average Humidity 61    
Maximum Humidity 82    
Minimum Humidity 29    
Precipitation  
Precipitation 0.00 in - - ()
Sea Level Pressure  
Sea Level Pressure 29.79 in    
Wind  
Wind Speed 10 mph (SSW)    
Max Wind Speed 14 mph    
Max Gust Speed 20 mph    
Visibility 10 miles    
Events      
Averages and records for this station are not official NWS values.
T = Trace of Precipitation, MM = Missing Value Source: NWS Daily Summary

Daily Weather History Graph

Daily Weather History Graph

Search for Another Location

Airport or City:

Trip Planner

Search our weather history database for the weather conditions in past years. The results will help you decide how hot, cold, wet, or windy it might be!

Date:

Astronomy

May. 14, 2013 Rise Set
Actual Time 5:47 AM CDT 8:21 PM CDT
Civil Twilight 5:15 AM CDT 8:53 PM CDT
Nautical Twilight 4:35 AM CDT 9:33 PM CDT
Astronomical Twilight 3:50 AM CDT 10:19 PM CDT
Moon 9:28 AM CDT (5/14) No Moon Set
Length of Visible Light 15h 38m
Length of Day
14h 33m
Waxing Crescent, 19% of the Moon is Illuminated
May 14
Waxing Crescent
May 17
First Quarter
May 24
Full
May 31
Last Quarter
Jun 8
New

Hourly Weather History & Observations

Time (CDT) Temp. Heat Index Dew Point Humidity Pressure Visibility Wind Dir Wind Speed Gust Speed Precip Events Conditions
12:15 AM 57.6 °F - 41.0 °F 54% 29.85 in 10.0 mi South 13.8 mph - N/A   Clear
12:35 AM 57.6 °F - 41.9 °F 56% 29.85 in 10.0 mi South 12.7 mph 18.4 mph N/A   Clear
12:55 AM 57.6 °F - 42.1 °F 56% 29.84 in 10.0 mi South 13.8 mph 18.4 mph N/A   Clear
1:15 AM 57.6 °F - 42.6 °F 57% 29.83 in 10.0 mi South 12.7 mph 19.6 mph N/A   Clear
1:35 AM 57.6 °F - 43.5 °F 59% 29.82 in 10.0 mi South 11.5 mph 18.4 mph N/A   Clear
1:55 AM 57.6 °F - 44.1 °F 61% 29.81 in 10.0 mi South 12.7 mph - N/A   Clear
2:15 AM 57.6 °F - 44.8 °F 62% 29.80 in 10.0 mi SSW 10.4 mph - N/A   Clear
2:35 AM 57.6 °F - 45.5 °F 64% 29.80 in 10.0 mi South 8.1 mph - N/A   Clear
2:55 AM 57.6 °F - 45.9 °F 65% 29.79 in 10.0 mi SSW 9.2 mph - N/A   Clear
3:15 AM 57.6 °F - 46.4 °F 66% 29.79 in 10.0 mi SSW 10.4 mph - N/A   Clear
3:35 AM 57.6 °F - 46.6 °F 67% 29.78 in 10.0 mi SSW 11.5 mph - N/A   Clear
3:55 AM 57.6 °F - 47.5 °F 69% 29.78 in 10.0 mi SSW 8.1 mph - N/A   Clear
4:15 AM 56.8 °F - 47.5 °F 71% 29.78 in 10.0 mi SSW 6.9 mph - N/A   Clear
4:35 AM 55.0 °F - 46.9 °F 74% 29.78 in 10.0 mi South 5.8 mph - N/A   Clear
4:55 AM 55.0 °F - 47.1 °F 75% 29.78 in 10.0 mi SSW 5.8 mph - N/A   Clear
5:15 AM 55.0 °F - 47.5 °F 76% 29.79 in 10.0 mi South 4.6 mph - N/A   Clear
5:35 AM 53.1 °F - 46.6 °F 79% 29.78 in 10.0 mi SSW 5.8 mph - N/A   Clear
5:55 AM 52.7 °F - 46.6 °F 80% 29.79 in 10.0 mi South 3.5 mph - N/A   Clear
6:15 AM 52.7 °F - 47.5 °F 82% 29.79 in 10.0 mi Calm Calm - N/A   Clear
6:35 AM 52.7 °F - 46.8 °F 80% 29.79 in 10.0 mi South 5.8 mph - N/A   Clear
6:55 AM 55.0 °F - 48.7 °F 79% 29.79 in 10.0 mi SSW 5.8 mph - N/A   Clear
7:15 AM 55.9 °F - 48.7 °F 77% 29.78 in 10.0 mi SSW 5.8 mph - N/A   Clear
7:35 AM 57.7 °F - 49.3 °F 73% 29.78 in 10.0 mi SSW 5.8 mph - N/A   Clear
7:55 AM 60.4 °F - 49.8 °F 68% 29.79 in 10.0 mi SW 4.6 mph - N/A   Clear
8:15 AM 65.3 °F - 51.8 °F 62% 29.79 in 10.0 mi WSW 5.8 mph - N/A   Clear
8:35 AM 67.6 °F - 52.7 °F 59% 29.79 in 10.0 mi WSW 8.1 mph - N/A   Clear
8:55 AM 68.0 °F - 51.6 °F 56% 29.78 in 10.0 mi WSW 8.1 mph - N/A   Clear
9:15 AM 72.1 °F - 53.8 °F 52% 29.77 in 10.0 mi WSW 8.1 mph - N/A   Clear
9:35 AM 72.7 °F - 52.0 °F 48% 29.77 in 10.0 mi SW 8.1 mph - N/A   Clear
9:55 AM 75.2 °F - 52.5 °F 45% 29.77 in 10.0 mi SW 6.9 mph - N/A   Clear
10:15 AM - - - N/A% - - North - - N/A   Unknown
10:35 AM 81.5 °F 80.9 °F 54.5 °F 39% 29.77 in - SW 8.1 mph - N/A   Unknown
10:55 AM 83.3 °F 82.0 °F 53.2 °F 35% 29.76 in 10.0 mi SSW 9.2 mph - N/A   Clear
11:15 AM 85.6 °F 83.8 °F 53.1 °F 33% 29.75 in 10.0 mi SSW 5.8 mph - N/A   Clear
11:35 AM 87.8 °F 85.9 °F 54.1 °F 32% 29.75 in 10.0 mi South 8.1 mph - N/A   Clear
11:55 AM 90.5 °F 88.3 °F 54.3 °F 29% 29.75 in 10.0 mi South 6.9 mph - N/A   Clear